Location: Barrialito
(10.1025°N, 66.8154°W)
Time: 15:03:12
(UTC+00:00)

Cosmos 372 Rocket - Pass Details

Date: 10 September 2024
Orbit: 734 x 765 km, 74.1° (Epoch: 15 October)

Event Time Altitude Azimuth Distance (km) Brightness Sun altitude
Rises 23:42:24 0° 354° (N) 3,205 7.4 -18.4°
Reaches altitude 10° 23:44:48 10° 358° (N) 2,284 6.6 -19.0°
Maximum altitude 23:49:53 57° 77° (ENE) 894 4.0 -20.2°
Enters shadow 23:51:49 36° 137° (SE) 1,201 4.6 -20.7°
